ORBCOMM FM06 1 25118U 97084G 26145.35832032 .00000833 00000+0 26364-3 0 9996 2 25118 45.0120 162.6065 0002273 258.8856 115.7105 14.47495781491085 ORBCOMM FM04 1 25159U 98007C 26145.40171035 .00000832 00000+0 33078-3 0 9991 2 25159 107.9624 122.5261 0040556 4.1934 355.9539 14.35689433473327 ORBCOMM FM19 1 25415U 98046C 26145.33851013 .00000864 00000+0 32035-3 0 9999 2 25415 44.9952 352.1647 0003134 186.1640 343.5103 14.39446893453481 ORBCOMM FM20 1 25416U 98046D 26145.29587303 .00000644 00000+0 25735-3 0 9998 2 25416 44.9954 0.0384 0000359 155.0677 205.0189 14.38027660453495 ORBCOMM FM27 1 25481U 98053G 26145.27905354 .00000843 00000+0 31589-3 0 9991 2 25481 45.0051 84.1536 0001349 322.9684 37.1071 14.39088109446933 ORBCOMM FM32 1 25982U 99065C 26145.41948820 .00000566 00000+0 23635-3 0 9997 2 25982 45.0158 281.0055 0005717 289.9084 70.1148 14.37096110383818 ORBCOMM FM109 1 40086U 14040A 26145.49720373 .00000214 00000+0 81619-4 0 9995 2 40086 47.0018 198.7618 0000937 164.5350 195.5564 14.58815802631033 ORBCOMM FM114 1 41179U 15081A 26145.17217580 .00000263 00000+0 91890-4 0 9997 2 41179 47.0038 110.8128 0001315 82.6624 277.4411 14.58825699554394 ORBCOMM FM110 1 41182U 15081D 26145.16082419 .00000637 00000+0 17108-3 0 9995 2 41182 47.0010 110.3134 0003761 319.8741 40.1867 14.58838006554264 ORBCOMM FM118 1 41183U 15081E 26145.60606853 .00000591 00000+0 16141-3 0 9994 2 41183 47.0035 108.5356 0004045 291.2713 68.7741 14.58857321554432 ORBCOMM FM112 1 41184U 15081F 26145.33703696 .00000637 00000+0 17106-3 0 9991 2 41184 47.0007 18.2953 0002457 101.7171 258.3991 14.58864514555617 ORBCOMM FM113 1 41185U 15081G 26145.38149968 .00000359 00000+0 11215-3 0 9999 2 41185 47.0022 18.4505 0001015 103.7928 256.3071 14.58828501555603 ORBCOMM FM108 1 41187U 15081J 26145.41254948 .00000562 00000+0 15525-3 0 9994 2 41187 47.0052 289.8722 0001902 105.8917 254.2179 14.58833572556756 ORBCOMM FM117 1 41188U 15081K 26145.10405992 .00000484 00000+0 13868-3 0 9999 2 41188 47.0017 289.9716 0002408 109.6740 250.4406 14.58830341556752 ORBCOMM FM116 1 41189U 15081L 26145.08468829 .00000576 00000+0 15803-3 0 9998 2 41189 47.0037 19.8522 0001955 314.3061 45.7665 14.58841637555567